Auxerre

France     47˚47′28″N   3˚34′08″E
temp.,
°C
wind,
m/s
gust,
m/s
humid.,
%
clouds,
%
prec.,
mm/h
press.,
hPa
HPBL,
m
3 december, thu
thu301:00+4˚wsw2392100 0.1 101487
04:00+3˚ssw3696100 0.0 1011157
07:00+4˚ssw5989100 0.1 1008444
10:00+4˚ssw61190100 0.1 1006498
13:00+5˚s81386100 0.1 1002635
16:00+6˚s81386100 0.1 996763
19:00+6˚s91790100 2.8 9911028
22:00+7˚ssw111789100 4.1 9871083
4 december, fri
fri401:00+7˚ssw112086100 5.4 9841291
04:00+5˚sw91589100 1.8 983946
07:00+5˚sw61185100 3.9 984814
10:00+5˚ssw71285100 0.0 986780
13:00+6˚sw6973100 0.0 9871067
16:00+5˚sse3679100 0.0 986269
19:00+3˚se4108676 0.1 987258
22:00+3˚s5139247 0.1 989570
5 december, sat
sat501:00+3˚sw478061 0.1 990745
04:00−1˚sse410920 0.0 991241
07:00sse411880 0.0 992294
10:00+2˚sse5127516 0.0 993492
13:00+6˚sse696510 0.0 992778
16:00+5˚se410724 0.0 991472
19:00+3˚se4138152 0.0 992480
22:00+2˚se41381100 0.0 992544
6 december, sun
sun601:00+3˚se51476100 0.0 993544
04:00+2˚sse5147781 0.0 993584
07:00+3˚sse5119590 0.1 995605
10:00+4˚sse598381 0.3 997822
13:00+6˚s586489 0.4 9971260
16:00+5˚se227247 0.1 99846
19:00+2˚e368525 0.1 1000119
22:00+1˚ne118914 0.0 100222
7 december, mon
mon701:00+1˚nnw229024 0.0 100322
04:00wnw2290100 0.0 100422
07:00wnw2493100 0.0 1006112
10:00+2˚w3587100 0.0 1007239
13:00+4˚wsw4775100 0.0 1008432
16:00+3˚wsw4880100 0.0 1008557
19:00+2˚sw41091100 0.0 1009380
22:00+3˚sw5894100 0.1 1010364